Location: St. Louis
(38.6270°N, 90.1994°W)
Time: 11:13:24
(UTC-06:00)

S-56A Canister/Altair - Pass Details

Date: 05 December 2021
Orbit: 634 x 2499 km, 38.9° (Epoch: 26 January)

Event Time Altitude Azimuth Distance (km) Brightness Sun altitude
Rises 04:40:36 0° 283° (WNW) 3,734 - -27.3°
Reaches altitude 10° 04:43:45 10° 276° (W) 2,535 - -26.6°
Maximum altitude 04:48:57 37° 210° (SSW) 1,108 - -25.6°
Exits shadow 04:49:32 36° 193° (SSW) 1,116 8.2 -25.5°
Drops below altitude 10° 04:53:08 10° 142° (SE) 2,039 10.3 -24.8°
Sets 04:55:25 0° 133° (SE) 2,910 11.4 -24.4°
